Location: Gaast
(52.9002°N, 5.8891°E)
Time: 13:09:24
(UTC+00:00)

ACS3 Solar Sail - Pass Details

Date: 26 January 2026
Orbit: 900 x 968 km, 97.2° (Epoch: 10 February)

Event Time Altitude Azimuth Distance (km) Brightness Sun altitude
Rises 01:54:40 0° 14° (NNE) 3,629 5.3 -48.0°
Reaches altitude 10° 01:57:09 10° 16° (NNE) 2,669 4.5 -47.8°
Enters shadow 01:57:11 10° 16° (NNE) 2,661 4.5 -47.8°
